Kosmos-2074

operational
NORAD ID: 20577 Int'l Des: 1990-036 Owner: VMF Country: SU
LEOCIRCULARPOLAR

关于 Kosmos-2074

正在加载描述...

实时位置

正在加载3D地球...

即将过境

高度历史

Altitude vs Time

uPlot chart will show altitude changes over time

两行轨道根数

1 20577U 90036A 25277.80407044 .00000111 00000-0 10065-3 0 9997
2 20577 82.9398 295.3232 0026531 197.0527 336.2609 13.74852808778632
Epoch: Oct 4, 2025 • Age: 11 hours

当前状态

高度 1005.7 km
速度 7.35 km/s
星下点 -82.87°S, 106.91°E
发射日期 Apr 20, 1990
运行时间 35.4 years
类型 other

技术详情

分类 Payload
质量 800.00 kg
干质量 800.00 kg
总质量 800.00 kg
长度 5.00 m
直径 2.10 m
跨度 17.00 m
形状 Cyl + Ant
制造商 POL
平台类型 KAUR-1 11F627
阶段状态 In Orbit
所有者/国家 VMF/SU

大型星座

Loading constellations...